Date,TemperatureHighF,TemperatureAvgF,TemperatureLowF,DewpointHighF,DewpointAvgF,DewpointLowF,HumidityHigh,HumidityAvg,HumidityLow,PressureMaxIn,PressureMinIn,WindSpeedMaxMPH,WindSpeedAvgMPH,GustSpeedMaxMPH,PrecipitationSumIn
2013-3-1,56.5,36.2,19.9,24.7,17.3,2.0,68,47,28,30.25,30.22,8,4,8,0.00
2013-3-2,56.3,42.8,30.0,24.8,19.4,14.8,62,40,27,30.25,29.95,17,5,17,0.00
2013-3-3,61.9,36.1,21.9,28.6,16.5,-2.1,96,47,25,29.95,29.66,32,10,32,0.00
2013-3-4,23.7,16.6,5.0,6.1,-0.6,-9.3,56,46,36,30.22,29.86,32,11,32,0.00
2013-3-5,36.1,18.6,3.6,12.5,2.2,-10.7,62,48,39,30.19,29.98,17,6,17,0.00
2013-3-6,54.3,34.6,19.6,24.6,13.3,3.8,63,42,31,29.98,29.78,23,6,23,0.00
2013-3-7,46.2,34.6,21.4,16.1,10.1,2.0,56,36,25,30.04,29.83,29,6,29,0.00
2013-3-8,39.2,30.3,19.8,26.1,18.3,10.7,88,61,43,30.01,29.86,16,5,16,0.00
2013-3-9,36.9,29.4,19.8,22.2,11.6,4.2,80,48,36,30.19,29.92,27,10,27,0.00
2013-3-10,49.3,32.3,14.4,19.5,10.3,-1.5,58,40,28,30.19,30.01,11,4,11,0.00
2013-3-11,39.4,30.1,17.8,22.6,15.8,8.5,92,58,29,30.22,30.01,27,8,27,0.00
2013-3-12,43.5,24.7,6.8,19.6,12.0,1.7,88,60,38,30.22,30.07,14,5,14,0.00
2013-3-13,56.7,44.1,29.5,25.0,20.4,15.8,61,39,27,30.19,30.07,18,5,18,0.00
2013-3-14,59.5,46.4,37.0,29.0,23.0,18.5,55,40,28,30.22,30.04,18,5,18,0.00
2013-3-15,58.1,44.5,31.3,31.0,20.4,14.3,90,41,20,30.07,29.98,24,7,24,0.00
2013-3-16,53.1,37.3,26.4,26.6,20.8,11.9,89,54,30,30.07,29.75,24,5,24,0.00
2013-3-17,40.3,29.7,21.4,26.5,11.8,-0.7,96,49,30,29.86,29.57,27,9,27,0.00
2013-3-18,39.7,23.9,9.1,17.8,1.7,-7.0,82,40,20,29.95,29.83,30,8,30,0.00
2013-3-19,39.6,24.6,15.3,17.8,6.7,0.7,87,48,31,30.19,29.92,25,7,25,0.00
2013-3-20,56.3,34.2,18.3,21.8,12.3,2.0,55,41,26,30.16,29.69,22,5,22,0.00
2013-3-21,44.1,30.3,16.5,30.3,16.8,2.4,97,59,32,29.89,29.66,24,7,24,0.00
2013-3-22,33.1,18.9,11.1,17.5,4.5,-8.5,89,56,32,30.04,29.86,19,8,19,0.00
2013-3-23,24.3,13.6,-1.8,10.7,3.2,-4.8,87,65,42,30.16,30.04,15,6,15,0.00
2013-3-24,26.2,16.3,5.0,8.4,1.7,-9.0,80,54,36,30.16,30.13,20,7,20,0.00
2013-3-25,37.6,22.8,10.2,8.8,1.5,-5.1,49,40,30,30.16,30.01,19,9,19,0.00
2013-3-26,54.1,34.6,24.1,19.1,9.2,-0.2,52,35,22,30.04,29.98,17,6,17,0.00
2013-3-27,59.0,38.8,25.7,21.8,14.9,7.6,51,39,24,30.07,30.01,17,7,17,0.00
2013-3-28,65.1,42.9,30.2,25.4,17.5,11.9,51,37,19,30.13,30.07,16,7,17,0.00
2013-3-29,60.4,40.6,30.0,36.0,23.8,12.9,96,54,28,30.19,30.10,17,6,20,0.16
2013-3-30,50.9,39.8,32.7,33.5,22.8,14.5,96,54,29,30.22,30.13,23,8,23,0.04
2013-3-31,56.5,40.0,25.3,23.7,17.7,11.2,79,42,27,30.16,30.04,17,7,17,0.00